Duluth, MN

10:41 AM CDT on September 22, 2017 (GMT -0500)
Duluth International

Weather History for KDLH - January, 2013

Change the Weather History Date:

Saturday, January 5, 2013

  Actual Average Record
Temperature  
Mean Temperature 18 °F 10 °F  
Max Temperature 28 °F 19 °F 48 °F (2012)
Min Temperature 8 °F 2 °F -32 °F (1912)
Degree Days  
Heating Degree Days 47 55  
Month to date heating degree days 246 272  
Since 1 July heating degree days 3718 4041  
Cooling Degree Days 0 0  
Month to date cooling degree days 0 0  
Year to date cooling degree days 0 0  
Moisture  
Dew Point 15 °F    
Average Humidity 80    
Maximum Humidity 92    
Minimum Humidity 68    
Precipitation  
Precipitation 0.00 in 0.03 in 0.71 in (1946)
Month to date precipitation T 0.18  
Year to date precipitation T 0.18  
Snow  
Snow 0.00 in 0.70 in 6.20 in (1910)
Month to date snowfall 0.3 3.4  
Since 1 July snowfall 24.8 37.2  
Snow Depth 5.00 in    
Sea Level Pressure  
Sea Level Pressure 29.98 in    
Wind  
Wind Speed 6 mph (ENE)    
Max Wind Speed 15 mph    
Max Gust Speed 17 mph    
Visibility 8 miles    
Events Fog    
T = Trace of Precipitation, MM = Missing Value Source: NWS Daily Summary

Daily Weather History Graph

Daily Weather History Graph

Search for Another Location

Airport or City:

Trip Planner

Search our weather history database for the weather conditions in past years. The results will help you decide how hot, cold, wet, or windy it might be!

Date:

Astronomy

Jan. 05, 2013 Rise Set
Actual Time 7:53 AM CST 4:35 PM CST
Civil Twilight 7:18 AM CST 5:10 PM CST
Nautical Twilight 6:40 AM CST 5:48 PM CST
Astronomical Twilight 6:03 AM CST 6:25 PM CST
Moon 12:47 AM CST (1/5) 11:36 AM CST (1/5)
Length of Visible Light 9h 51m
Length of Day
8h 41m
Last Quarter, 44% of the Moon is Illuminated
Jan 5
Last Quarter
Jan 11
New
Jan 18
First Quarter
Jan 26
Full
Feb 3
Last Quarter

Hourly Weather History & Observations

Time (CST) Temp. Windchill Dew Point Humidity Pressure Visibility Wind Dir Wind Speed Gust Speed Precip Events Conditions
12:14 AM 12.2 °F - 8.6 °F 85% 30.04 in 1.5 mi Calm Calm - N/A   Clear
12:26 AM 15.8 °F 8.6 °F 12.2 °F 86% 30.04 in 3.0 mi ENE 4.6 mph - N/A   Clear
12:55 AM 15.1 °F 9.4 °F 10.0 °F 80% 30.12 in 7.0 mi East 3.5 mph - N/A   Scattered Clouds
1:17 AM 12.2 °F - 10.4 °F 92% 30.04 in 1.8 mi Calm Calm - N/A   Clear
1:36 AM 12.2 °F 6.1 °F 8.6 °F 85% 30.04 in 0.5 mi ENE 3.5 mph - N/A Fog Light Freezing Fog
1:48 AM 10.4 °F 4.0 °F 8.6 °F 92% 30.04 in 2.0 mi ENE 3.5 mph - N/A   Clear
1:55 AM 10.0 °F 3.6 °F 8.1 °F 92% 30.12 in 5.0 mi ENE 3.5 mph - N/A   Clear
2:49 AM 10.4 °F 0.8 °F 6.8 °F 85% 30.02 in 10.0 mi ESE 5.8 mph - N/A   Mostly Cloudy
2:55 AM 10.9 °F 1.4 °F 7.0 °F 84% 30.10 in 10.0 mi ESE 5.8 mph - N/A   Mostly Cloudy
3:34 AM 15.8 °F 8.6 °F 12.2 °F 86% 30.02 in 10.0 mi ESE 4.6 mph - N/A   Scattered Clouds
3:55 AM 16.0 °F 7.4 °F 12.9 °F 88% 30.08 in 10.0 mi ESE 5.8 mph - N/A   Partly Cloudy
4:55 AM 16.0 °F 4.4 °F 12.9 °F 88% 30.06 in 10.0 mi ESE 9.2 mph - N/A   Clear
5:55 AM 19.0 °F 8.2 °F 15.1 °F 85% 30.05 in 10.0 mi East 9.2 mph - N/A   Clear
6:47 AM 17.6 °F 7.3 °F 15.8 °F 93% 29.94 in 10.0 mi ESE 8.1 mph - N/A   Partly Cloudy
6:55 AM 18.0 °F 8.7 °F 15.1 °F 88% 30.02 in 10.0 mi ESE 6.9 mph - N/A   Partly Cloudy
7:55 AM 17.1 °F 7.6 °F 12.9 °F 84% 30.00 in 8.0 mi ESE 6.9 mph - N/A   Clear
8:55 AM 17.1 °F 10.0 °F 14.0 °F 88% 30.01 in 7.0 mi East 4.6 mph - N/A   Clear
9:55 AM 21.0 °F 13.4 °F 17.1 °F 85% 30.01 in 8.0 mi ESE 5.8 mph - 0.01 in   Clear
10:55 AM 21.0 °F 14.6 °F 16.0 °F 81% 29.99 in 10.0 mi SSE 4.6 mph - N/A   Scattered Clouds
11:55 AM 21.9 °F - 16.0 °F 78% 29.96 in 10.0 mi Calm Calm - N/A   Partly Cloudy
12:55 PM 25.0 °F 17.1 °F 17.1 °F 72% 29.91 in 10.0 mi ENE 6.9 mph - N/A   Clear
1:55 PM 25.0 °F 16.3 °F 17.1 °F 72% 29.89 in 10.0 mi SE 8.1 mph - N/A   Clear
2:55 PM 25.0 °F - 17.1 °F 72% 29.91 in 10.0 mi Calm Calm - N/A   Clear
3:55 PM 24.1 °F 16.0 °F 16.0 °F 71% 29.90 in 10.0 mi East 6.9 mph - N/A   Partly Cloudy
4:30 PM 24.8 °F - 15.8 °F 69% 29.82 in 10.0 mi Calm Calm - N/A   Mostly Cloudy
4:55 PM 25.0 °F - 17.1 °F 72% 29.91 in 10.0 mi Calm Calm - N/A   Overcast
5:18 PM 26.6 °F 22.6 °F 17.6 °F 69% 29.83 in 10.0 mi North 3.5 mph - N/A   Overcast
5:55 PM 27.0 °F 18.7 °F 19.9 °F 75% 29.92 in 10.0 mi NNE 8.1 mph - N/A   Overcast
6:55 PM 28.0 °F 21.7 °F 19.9 °F 72% 29.94 in 10.0 mi North 5.8 mph - N/A   Overcast
7:55 PM 27.0 °F 18.7 °F 19.9 °F 75% 29.95 in 10.0 mi North 8.1 mph - N/A   Overcast
8:55 PM 25.0 °F 15.5 °F 19.0 °F 78% 29.96 in 10.0 mi NNW 9.2 mph - N/A   Overcast
9:15 PM 24.8 °F 16.1 °F 19.4 °F 80% 29.88 in 10.0 mi NNW 8.1 mph - N/A   Overcast
9:24 PM 24.8 °F 16.1 °F 19.4 °F 80% 29.89 in 10.0 mi NNW 8.1 mph - N/A   Overcast
9:55 PM 21.9 °F 11.0 °F 18.0 °F 85% 29.98 in 10.0 mi NNW 10.4 mph - N/A   Overcast
10:55 PM 21.0 °F 10.6 °F 18.0 °F 88% 30.00 in 8.0 mi NW 9.2 mph - N/A   Overcast
11:55 PM 19.9 °F 7.9 °F 16.0 °F 85% 30.00 in 10.0 mi NNW 11.5 mph - N/A   Overcast